Date,TemperatureHighF,TemperatureAvgF,TemperatureLowF,DewpointHighF,DewpointAvgF,DewpointLowF,HumidityHigh,HumidityAvg,HumidityLow,PressureMaxIn,PressureMinIn,WindSpeedMaxMPH,WindSpeedAvgMPH,GustSpeedMaxMPH,PrecipitationSumIn
2013-7-1,79.0,68.0,61.0,72.0,65.0,60.0,99,91,69,0.00,40.00,4,2,10,0.53
2013-7-2,75.0,68.8,66.0,73.0,67.3,65.0,99,95,84,0.00,40.00,6,3,16,0.26
2013-7-3,72.0,68.4,66.0,71.0,68.0,66.0,100,98,93,0.00,40.00,5,2,11,1.08
2013-7-4,80.0,71.2,66.0,73.0,68.6,66.0,100,92,70,0.00,40.00,6,3,13,1.70
2013-7-5,82.0,71.6,67.0,75.0,69.2,64.0,100,93,72,0.00,40.00,6,3,12,0.72
2013-7-6,84.0,72.5,65.0,72.0,68.0,65.0,100,87,63,0.00,40.00,5,2,12,0.04
2013-7-7,80.0,69.6,65.0,73.0,66.8,65.0,99,91,75,0.00,40.00,5,2,13,0.07
2013-7-8,82.0,68.5,62.0,71.0,64.6,60.0,100,89,58,0.00,40.00,4,2,11,0.04
2013-7-9,84.0,73.3,65.0,73.0,67.4,61.0,97,82,63,0.00,40.00,4,2,7,0.01
2013-7-10,81.0,70.2,68.0,73.0,64.4,-99.9,99,87,73,0.00,40.00,3,2,12,0.28
2013-7-11,81.0,71.1,67.0,71.0,67.6,62.0,100,90,61,0.00,40.00,7,2,14,0.76
2013-7-12,74.0,65.9,62.0,67.0,62.8,61.0,99,90,73,0.00,40.00,4,3,11,0.37
2013-7-13,77.0,69.1,63.0,68.0,65.0,62.0,98,88,67,0.00,40.00,4,2,8,0.10
2013-7-14,85.0,73.8,67.0,71.0,67.6,66.0,99,82,56,0.00,40.00,3,2,10,0.11
2013-7-15,90.0,75.7,67.0,73.0,67.7,63.0,99,78,48,0.00,40.00,3,1,7,0.00
2013-7-16,91.0,77.7,69.0,73.0,69.5,66.0,96,78,49,0.00,40.00,5,2,10,0.00
2013-7-17,87.0,74.8,68.0,77.0,70.4,63.0,98,87,54,0.00,40.00,4,2,8,0.09
2013-7-18,91.0,78.1,68.0,76.0,72.0,68.0,99,83,55,0.00,40.00,3,1,6,0.09
2013-7-19,90.0,75.7,69.0,77.0,71.0,69.0,99,87,62,0.00,40.00,4,2,10,0.00
2013-7-20,87.0,75.5,68.0,73.0,67.3,-99.9,99,79,57,0.00,40.00,4,3,12,0.68
2013-7-21,83.0,71.6,64.0,73.0,68.4,64.0,99,90,69,0.00,40.00,6,2,14,0.75
2013-7-22,82.0,71.3,67.0,73.0,69.3,67.0,99,94,67,0.00,40.00,4,1,13,0.16
2013-7-23,85.0,74.0,68.0,70.0,65.2,60.0,99,76,53,0.00,40.00,5,3,15,0.07
2013-7-24,87.0,73.7,67.0,70.0,64.5,59.0,92,74,52,0.00,40.00,4,2,11,0.00
2013-7-25,80.0,68.9,59.0,62.0,58.1,53.0,85,70,49,0.00,40.00,4,2,8,0.00
2013-7-26,83.0,68.6,57.0,65.0,60.0,54.0,92,75,53,0.00,40.00,5,2,11,0.00
2013-7-27,68.0,66.3,65.0,67.0,64.9,63.0,99,95,88,0.00,40.00,4,3,10,0.25
2013-7-28,81.0,69.6,64.0,66.0,62.6,56.0,99,81,56,0.00,40.00,6,3,15,0.01
2013-7-29,78.0,65.2,55.0,58.0,53.0,49.0,90,67,44,0.00,40.00,5,2,11,0.01
2013-7-30,80.0,66.5,53.0,61.0,56.1,49.0,95,71,46,0.00,40.00,3,2,7,0.00
2013-7-31,71.0,64.1,62.0,65.0,61.1,58.0,99,91,74,0.00,40.00,4,1,8,0.33